sat.trackr.live / text

‹ back to catalog

STARLINK-34492

NORAD 64473 · 2025-133B

PAYLOAD ACTIVE UNKNOWN

§ Identity

Operator
Country
US
Launch date
2025-06-23
Launch site
AFETR
Launch vehicle
Mass (kg)
RCS (m²)

Purposes: comms

External: N2YO · Heavens-Above · Gunter

§ Orbital elements

Epoch: 2026-05-25T05:24:07.947072Z

Period
94.11 min
Inclination
53.1566°
Eccentricity
0.0001775
Mean motion
15.30180167 rev/d
Perigee alt
474.1 km
Apogee alt
476.5 km
Semi-major
6,853.4 km
B*
9.0367e-4
RAAN
121.4941°
Arg perigee
102.2904°
Mean anomaly
257.8296°
Rev number
5,290

§ Raw data

STARLINK-344921 64473U 25133B   26145.22509198  .00026484  00000+0  90367-3 0  99932 64473  53.1566 121.4941 0001775 102.2904 257.8296 15.30180167 52909

JSON: /api/v1/satellites/64473 · /tle

For live sub-satellite position, see the globe view (requires WebGL).

§ Visibility from observer

Set your observer location to see the next 7 days of passes ≥ 10°. The values pass through the URL so the page stays shareable.

No JS? Fill the form by hand. The geolocation button needs JavaScript.